Precipitable_Water
1.21 1.26 1.34 1.42 1.48 1.46 1.41 1.40 1.45 1.42 1.41 1.37 1.37 1.39 1.40 1.44 1.51 1.60 1.65 1.73 1.73 1.74 1.78 1.82 1.79 1.81 1.82 1.85 1.84 1.91 1.94 1.90 1.87 1.83 1.79 1.81 1.80 1.75 1.69 1.66 1.52 1.41 1.30 1.23 1.16 1.08 1.07 0.99 1.00 1.06 1.13 1.10 1.14 1.19 1.27 1.30 1.21 1.23 1.21 1.13 1.13 1.12 1.11
1.16 1.26 1.32 1.42 1.46 1.44 1.40 1.44 1.47 1.42 1.41 1.40 1.41 1.42 1.42 1.40 1.44 1.49 1.57 1.62 1.64 1.63 1.64 1.66 1.69 1.71 1.77 1.81 1.85 1.82 1.79 1.81 1.81 1.80 1.79 1.79 1.71 1.62 1.55 1.45 1.35 1.18 0.94 0.98 0.90 0.98 0.95 1.01 1.04 1.06 1.07 1.08 1.19 1.17 1.19 1.22 1.23 1.16 1.15 1.20 1.13 1.15 1.19
1.16 1.26 1.32 1.39 1.44 1.40 1.39 1.44 1.43 1.41 1.41 1.41 1.43 1.42 1.41 1.40 1.45 1.47 1.50 1.55 1.53 1.67 1.67 1.71 1.71 1.61 1.64 1.66 1.62 1.63 1.69 1.68 1.66 1.68 1.69 1.56 1.49 1.43 1.39 1.25 1.06 0.93 0.94 0.92 0.94 0.97 1.04 1.06 1.00 1.08 1.07 1.11 1.18 1.19 1.19 1.22 1.22 1.18 1.22 1.26 1.23 1.18 1.21
1.17 1.24 1.32 1.43 1.45 1.44 1.42 1.43 1.40 1.40 1.43 1.43 1.43 1.41 1.40 1.40 1.45 1.48 1.51 1.54 1.52 1.52 1.57 1.66 1.68 1.74 1.74 1.79 1.65 1.74 1.76 1.73 1.70 1.63 1.51 1.41 1.33 1.25 1.06 0.93 0.83 0.87 0.74 0.95 1.01 1.06 1.11 1.07 1.13 1.13 1.08 1.13 1.12 1.14 1.18 1.16 1.16 1.21 1.24 1.26 1.25 1.25 1.24
1.18 1.27 1.33 1.39 1.38 1.37 1.40 1.39 1.38 1.39 1.38 1.41 1.43 1.42 1.42 1.43 1.43 1.46 1.48 1.55 1.56 1.52 1.54 1.55 1.65 1.72 1.80 1.76 1.68 1.67 1.67 1.62 1.56 1.51 1.38 1.27 1.10 0.93 0.84 0.91 0.95 0.99 1.01 1.07 1.04 1.10 1.07 1.12 1.14 1.16 1.16 1.19 1.15 1.23 1.21 1.21 1.19 1.22 1.27 1.27 1.23 1.24 1.23
1.13 1.21 1.30 1.33 1.34 1.38 1.39 1.39 1.40 1.38 1.36 1.35 1.37 1.38 1.40 1.41 1.43 1.42 1.45 1.51 1.53 1.57 1.56 1.55 1.54 1.55 1.56 1.58 1.62 1.57 1.51 1.43 1.29 1.16 1.05 0.95 0.90 0.91 0.97 1.04 1.07 1.08 1.10 1.15 1.16 1.17 1.14 1.16 1.15 1.10 1.06 1.15 1.16 1.15 1.19 1.21 1.26 1.30 1.27 1.25 1.24 1.22 1.19
1.10 1.18 1.24 1.31 1.35 1.37 1.36 1.37 1.39 1.42 1.43 1.38 1.38 1.40 1.44 1.44 1.44 1.44 1.43 1.44 1.51 1.44 1.48 1.47 1.52 1.51 1.50 1.52 1.45 1.35 1.23 1.07 1.04 1.00 0.97 0.97 0.98 1.08 1.10 1.13 1.20 1.21 1.23 1.15 1.22 1.20 1.23 1.22 1.24 1.21 1.22 1.17 1.17 1.22 1.21 1.22 1.24 1.26 1.25 1.24 1.24 1.25 1.25
1.09 1.15 1.24 1.31 1.36 1.37 1.38 1.37 1.39 1.44 1.47 1.43 1.40 1.40 1.39 1.46 1.47 1.43 1.39 1.43 1.46 1.46 1.47 1.43 1.50 1.43 1.43 1.39 1.26 1.11 1.02 1.01 1.02 1.02 1.06 1.06 1.15 1.22 1.24 1.27 1.26 1.30 1.27 1.29 1.31 1.33 1.29 1.31 1.36 1.34 1.27 1.24 1.23 1.19 1.19 1.21 1.20 1.21 1.22 1.18 1.18 1.20 1.22
1.13 1.19 1.23 1.29 1.34 1.40 1.44 1.43 1.44 1.47 1.46 1.46 1.44 1.41 1.42 1.45 1.44 1.43 1.38 1.38 1.39 1.37 1.37 1.43 1.42 1.37 1.26 1.17 1.08 1.03 1.04 1.05 1.09 1.12 1.18 1.22 1.24 1.30 1.32 1.32 1.36 1.36 1.37 1.36 1.40 1.45 1.47 1.46 1.44 1.39 1.36 1.29 1.23 1.20 1.19 1.19 1.19 1.22 1.19 1.18 1.18 1.17 1.17
1.11 1.15 1.24 1.31 1.35 1.42 1.49 1.50 1.51 1.52 1.48 1.52 1.50 1.46 1.44 1.44 1.42 1.40 1.36 1.36 1.35 1.35 1.36 1.34 1.31 1.25 1.16 1.08 1.03 1.07 1.11 1.16 1.23 1.28 1.28 1.30 1.37 1.41 1.43 1.43 1.45 1.46 1.47 1.46 1.51 1.52 1.55 1.53 1.52 1.50 1.47 1.42 1.34 1.26 1.22 1.21 1.22 1.21 1.20 1.18 1.17 1.16 1.16
1.13 1.18 1.23 1.28 1.33 1.42 1.46 1.47 1.49 1.50 1.51 1.58 1.56 1.51 1.48 1.44 1.38 1.30 1.34 1.31 1.32 1.34 1.34 1.30 1.28 1.17 1.11 1.11 1.13 1.19 1.24 1.29 1.33 1.36 1.38 1.40 1.45 1.46 1.47 1.48 1.50 1.53 1.55 1.56 1.58 1.56 1.56 1.58 1.60 1.61 1.58 1.50 1.40 1.29 1.24 1.22 1.20 1.18 1.16 1.17 1.17 1.15 1.13
1.10 1.14 1.17 1.24 1.32 1.37 1.40 1.46 1.50 1.51 1.54 1.59 1.56 1.49 1.43 1.37 1.28 1.24 1.29 1.32 1.36 1.32 1.32 1.26 1.24 1.16 1.16 1.25 1.26 1.27 1.34 1.37 1.40 1.45 1.45 1.47 1.49 1.52 1.51 1.54 1.56 1.57 1.62 1.62 1.62 1.61 1.61 1.65 1.62 1.64 1.64 1.58 1.48 1.33 1.24 1.20 1.18 1.17 1.16 1.17 1.17 1.15 1.12
1.06 1.11 1.16 1.21 1.28 1.35 1.43 1.45 1.46 1.47 1.54 1.55 1.48 1.42 1.34 1.23 1.21 1.22 1.25 1.31 1.33 1.31 1.28 1.21 1.22 1.24 1.30 1.31 1.33 1.36 1.44 1.46 1.49 1.53 1.57 1.56 1.60 1.60 1.60 1.62 1.65 1.68 1.70 1.74 1.70 1.69 1.71 1.74 1.77 1.77 1.73 1.68 1.53 1.37 1.24 1.20 1.18 1.16 1.16 1.16 1.13 1.08 1.07
1.05 1.10 1.16 1.22 1.26 1.31 1.33 1.41 1.44 1.46 1.53 1.53 1.40 1.29 1.19 1.16 1.19 1.20 1.25 1.27 1.31 1.30 1.27 1.25 1.27 1.32 1.35 1.39 1.43 1.47 1.52 1.56 1.59 1.59 1.62 1.63 1.64 1.65 1.67 1.70 1.74 1.76 1.78 1.77 1.74 1.77 1.77 1.79 1.79 1.80 1.79 1.66 1.46 1.32 1.22 1.14 1.10 1.10 1.11 1.06 1.05 1.06 1.05
0.96 1.04 1.11 1.15 1.20 1.27 1.32 1.35 1.41 1.46 1.51 1.49 1.32 1.17 1.09 1.12 1.18 1.22 1.30 1.30 1.31 1.34 1.33 1.32 1.33 1.36 1.42 1.47 1.50 1.53 1.59 1.60 1.61 1.61 1.62 1.64 1.66 1.69 1.71 1.75 1.79 1.81 1.81 1.82 1.84 1.85 1.84 1.84 1.86 1.80 1.69 1.48 1.32 1.20 1.09 1.05 1.04 1.07 0.95 0.93 0.93 0.94 0.92
0.93 1.01 1.05 1.10 1.16 1.24 1.31 1.38 1.43 1.48 1.49 1.37 1.22 1.10 1.07 1.11 1.15 1.19 1.22 1.24 1.30 1.33 1.39 1.36 1.40 1.43 1.47 1.48 1.53 1.57 1.60 1.62 1.61 1.60 1.62 1.65 1.69 1.74 1.78 1.81 1.82 1.82 1.82 1.85 1.84 1.88 1.86 1.84 1.85 1.77 1.56 1.34 1.22 1.09 1.03 1.01 1.04 1.00 0.89 0.85 0.83 0.79 0.81
0.92 0.97 1.04 1.11 1.18 1.23 1.29 1.39 1.44 1.48 1.46 1.26 1.17 1.08 1.07 1.10 1.14 1.19 1.24 1.28 1.31 1.35 1.40 1.42 1.45 1.49 1.49 1.50 1.55 1.58 1.59 1.59 1.61 1.63 1.62 1.65 1.72 1.79 1.82 1.83 1.82 1.82 1.82 1.79 1.82 1.80 1.76 1.73 1.68 1.53 1.35 1.20 1.08 0.99 0.99 0.99 1.02 0.91 0.85 0.81 0.77 0.77 0.76
0.90 0.96 1.03 1.10 1.17 1.22 1.27 1.35 1.41 1.45 1.38 1.18 1.13 1.10 1.10 1.10 1.14 1.19 1.22 1.28 1.32 1.40 1.46 1.45 1.48 1.47 1.50 1.54 1.56 1.57 1.57 1.59 1.62 1.62 1.63 1.69 1.76 1.79 1.77 1.76 1.76 1.76 1.76 1.76 1.77 1.77 1.75 1.59 1.42 1.22 1.13 1.02 0.99 0.96 0.93 0.92 0.99 0.86 0.82 0.80 0.79 0.81 0.79
0.91 0.98 1.04 1.11 1.16 1.20 1.26 1.31 1.39 1.43 1.31 1.15 1.11 1.12 1.13 1.13 1.14 1.16 1.24 1.30 1.38 1.47 1.44 1.44 1.47 1.46 1.49 1.53 1.55 1.58 1.61 1.62 1.63 1.64 1.65 1.70 1.76 1.75 1.71 1.68 1.67 1.70 1.73 1.69 1.70 1.67 1.55 1.37 1.22 1.09 1.00 0.98 0.97 0.94 0.92 0.91 0.99 0.87 0.83 0.82 0.82 0.82 0.78
0.95 1.01 1.09 1.16 1.20 1.23 1.27 1.36 1.42 1.44 1.27 1.14 1.16 1.18 1.17 1.16 1.15 1.22 1.33 1.40 1.44 1.42 1.41 1.43 1.44 1.46 1.48 1.55 1.58 1.61 1.62 1.62 1.63 1.63 1.67 1.71 1.71 1.71 1.72 1.71 1.67 1.65 1.67 1.63 1.54 1.45 1.28 1.18 1.07 1.01 0.99 0.98 0.96 0.93 0.93 0.91 1.02 0.89 0.85 0.83 0.80 0.75 0.71
0.99 1.03 1.08 1.14 1.18 1.23 1.29 1.34 1.41 1.39 1.22 1.17 1.19 1.23 1.18 1.18 1.21 1.28 1.36 1.41 1.37 1.40 1.40 1.42 1.43 1.43 1.49 1.54 1.58 1.60 1.61 1.62 1.63 1.64 1.68 1.69 1.68 1.69 1.68 1.67 1.63 1.56 1.56 1.50 1.44 1.32 1.12 1.01 0.94 0.96 0.97 0.97 0.96 0.92 0.89 0.91 0.93 0.85 0.79 0.73 0.66 0.65 0.66
1.00 1.06 1.08 1.15 1.18 1.24 1.29 1.35 1.40 1.33 1.16 1.23 1.24 1.22 1.19 1.19 1.29 1.32 1.35 1.40 1.37 1.40 1.41 1.40 1.40 1.41 1.48 1.52 1.58 1.61 1.63 1.63 1.61 1.60 1.61 1.61 1.60 1.58 1.57 1.59 1.54 1.45 1.45 1.41 1.29 1.08 0.99 1.00 1.00 0.96 0.94 0.95 0.93 0.87 0.83 0.84 0.84 0.76 0.66 0.60 0.62 0.64 0.66
1.05 1.08 1.14 1.20 1.24 1.28 1.34 1.41 1.44 1.33 1.20 1.21 1.24 1.22 1.20 1.26 1.31 1.33 1.33 1.32 1.38 1.39 1.38 1.36 1.35 1.42 1.49 1.55 1.61 1.62 1.62 1.61 1.57 1.53 1.50 1.52 1.50 1.49 1.51 1.48 1.43 1.40 1.40 1.23 1.08 0.98 0.97 0.98 0.95 0.94 0.93 0.91 0.88 0.82 0.72 0.69 0.76 0.69 0.63 0.63 0.64 0.63 0.62
1.12 1.18 1.21 1.25 1.32 1.34 1.39 1.44 1.46 1.32 1.18 1.22 1.25 1.27 1.27 1.28 1.28 1.30 1.28 1.31 1.35 1.33 1.33 1.34 1.39 1.49 1.55 1.58 1.60 1.57 1.59 1.57 1.53 1.49 1.47 1.45 1.46 1.44 1.44 1.42 1.37 1.28 1.19 1.02 0.96 0.96 0.97 0.96 0.95 0.93 0.88 0.83 0.75 0.67 0.55 0.57 0.68 0.67 0.67 0.64 0.62 0.60 0.59
1.13 1.20 1.24 1.27 1.28 1.30 1.38 1.44 1.42 1.27 1.25 1.24 1.25 1.29 1.32 1.30 1.29 1.29 1.26 1.32 1.35 1.37 1.40 1.45 1.55 1.58 1.57 1.56 1.60 1.56 1.57 1.54 1.50 1.46 1.41 1.40 1.42 1.42 1.36 1.31 1.22 1.12 1.02 0.98 0.96 0.97 0.99 0.94 0.84 0.80 0.77 0.76 0.65 0.60 0.59 0.62 0.67 0.69 0.64 0.59 0.58 0.57 0.55
1.10 1.15 1.20 1.28 1.33 1.38 1.42 1.43 1.33 1.23 1.24 1.25 1.28 1.34 1.35 1.33 1.30 1.27 1.29 1.34 1.39 1.39 1.44 1.51 1.56 1.61 1.61 1.62 1.60 1.58 1.55 1.51 1.47 1.42 1.43 1.41 1.40 1.33 1.23 1.12 1.00 0.98 0.97 0.97 0.97 0.94 0.89 0.76 0.75 0.72 0.69 0.63 0.58 0.61 0.62 0.61 0.62 0.62 0.58 0.54 0.51 0.51 0.50
1.14 1.18 1.20 1.25 1.31 1.39 1.36 1.34 1.28 1.25 1.29 1.34 1.37 1.39 1.40 1.36 1.33 1.34 1.40 1.43 1.40 1.41 1.48 1.57 1.60 1.58 1.57 1.56 1.53 1.50 1.47 1.46 1.45 1.41 1.40 1.36 1.25 1.09 0.99 0.96 0.97 0.97 0.96 0.94 0.92 0.83 0.77 0.73 0.70 0.65 0.56 0.57 0.59 0.60 0.59 0.59 0.55 0.57 0.50 0.45 0.43 0.43 0.42
1.13 1.19 1.26 1.32 1.35 1.35 1.31 1.31 1.31 1.33 1.36 1.41 1.44 1.45 1.45 1.44 1.42 1.45 1.48 1.45 1.43 1.51 1.59 1.60 1.56 1.53 1.50 1.50 1.47 1.46 1.44 1.42 1.39 1.34 1.25 1.12 0.98 0.93 0.95 0.98 0.97 0.94 0.92 0.88 0.83 0.76 0.71 0.69 0.60 0.53 0.53 0.57 0.59 0.55 0.52 0.53 0.53 0.50 0.46 0.41 0.38 0.38 0.40
1.11 1.13 1.18 1.24 1.30 1.36 1.35 1.32 1.34 1.36 1.39 1.45 1.48 1.49 1.48 1.47 1.44 1.46 1.46 1.44 1.52 1.61 1.61 1.62 1.60 1.55 1.51 1.47 1.43 1.38 1.33 1.27 1.16 1.03 0.99 0.97 0.96 0.97 0.96 0.94 0.91 0.89 0.88 0.81 0.74 0.68 0.60 0.54 0.51 0.51 0.53 0.54 0.51 0.50 0.49 0.49 0.50 0.51 0.42 0.39 0.36 0.34 0.37
1.17 1.21 1.26 1.32 1.36 1.37 1.38 1.36 1.39 1.41 1.46 1.50 1.52 1.53 1.54 1.50 1.44 1.45 1.46 1.50 1.61 1.62 1.64 1.62 1.56 1.49 1.41 1.35 1.27 1.17 1.06 1.00 0.99 1.00 0.99 0.98 0.97 0.94 0.91 0.90 0.88 0.83 0.77 0.70 0.63 0.55 0.48 0.47 0.51 0.51 0.49 0.46 0.45 0.47 0.47 0.49 0.48 0.46 0.48 0.45 0.40 0.45 0.59
1.19 1.23 1.28 1.31 1.35 1.41 1.42 1.39 1.38 1.42 1.46 1.52 1.55 1.57 1.56 1.54 1.48 1.50 1.51 1.60 1.65 1.63 1.58 1.51 1.42 1.33 1.23 1.08 0.99 0.94 0.98 1.00 1.00 0.99 0.99 0.97 0.94 0.89 0.86 0.80 0.75 0.71 0.67 0.59 0.53 0.49 0.46 0.45 0.46 0.43 0.42 0.43 0.44 0.45 0.46 0.47 0.47 0.50 0.54 0.51 0.47 0.56 0.66
1.24 1.29 1.34 1.36 1.37 1.41 1.43 1.45 1.45 1.45 1.44 1.50 1.56 1.57 1.59 1.60 1.61 1.55 1.59 1.66 1.65 1.59 1.47 1.34 1.22 1.09 0.96 0.93 0.92 0.94 0.97 0.96 0.98 0.94 0.92 0.91 0.87 0.80 0.73 0.68 0.65 0.59 0.52 0.46 0.46 0.49 0.47 0.43 0.43 0.42 0.43 0.43 0.44 0.44 0.45 0.44 0.46 0.51 0.54 0.49 0.50 0.60 0.71
1.24 1.28 1.31 1.32 1.37 1.41 1.42 1.43 1.43 1.45 1.47 1.45 1.55 1.59 1.62 1.63 1.65 1.64 1.64 1.59 1.52 1.42 1.30 1.14 0.98 0.88 0.87 0.90 0.94 0.94 0.93 0.86 0.84 0.83 0.84 0.79 0.74 0.69 0.66 0.60 0.49 0.46 0.44 0.46 0.48 0.47 0.44 0.44 0.44 0.42 0.41 0.41 0.42 0.43 0.42 0.41 0.43 0.47 0.49 0.45 0.52 0.61 0.73
1.25 1.31 1.36 1.40 1.42 1.46 1.47 1.47 1.46 1.48 1.50 1.50 1.58 1.63 1.64 1.64 1.61 1.58 1.51 1.42 1.33 1.18 1.02 0.90 0.87 0.88 0.88 0.87 0.85 0.81 0.79 0.74 0.70 0.73 0.75 0.70 0.60 0.54 0.52 0.51 0.48 0.46 0.45 0.46 0.43 0.41 0.41 0.41 0.39 0.40 0.41 0.40 0.40 0.41 0.42 0.40 0.38 0.43 0.43 0.41 0.51 0.59 0.71
1.31 1.34 1.38 1.41 1.48 1.52 1.51 1.52 1.52 1.53 1.54 1.58 1.64 1.64 1.60 1.54 1.47 1.40 1.29 1.19 1.08 0.96 0.89 0.84 0.83 0.84 0.79 0.76 0.75 0.73 0.72 0.72 0.70 0.64 0.58 0.53 0.50 0.49 0.41 0.45 0.47 0.46 0.48 0.53 0.43 0.41 0.35 0.32 0.33 0.39 0.38 0.35 0.35 0.36 0.35 0.34 0.35 0.39 0.38 0.46 0.53 0.58 0.62
1.35 1.39 1.44 1.51 1.55 1.57 1.58 1.59 1.57 1.57 1.58 1.60 1.61 1.54 1.45 1.37 1.30 1.23 1.14 1.04 0.97 0.93 0.85 0.81 0.79 0.76 0.73 0.71 0.70 0.69 0.67 0.62 0.59 0.50 0.50 0.54 0.53 0.51 0.52 0.47 0.37 0.35 0.33 0.45 0.45 0.40 0.39 0.37 0.35 0.36 0.35 0.33 0.32 0.35 0.31 0.30 0.34 0.35 0.38 0.46 0.53 0.57 0.61
1.36 1.40 1.44 1.50 1.51 1.54 1.55 1.57 1.59 1.60 1.55 1.52 1.47 1.40 1.32 1.23 1.12 1.04 0.99 0.97 0.95 0.91 0.86 0.82 0.76 0.73 0.70 0.71 0.70 0.65 0.60 0.56 0.54 0.49 0.45 0.50 0.51 0.50 0.41 0.45 0.48 0.40 0.39 0.37 0.38 0.38 0.37 0.38 0.38 0.38 0.37 0.33 0.29 0.32 0.36 0.37 0.36 0.34 0.38 0.45 0.52 0.55 0.58
1.45 1.47 1.50 1.54 1.53 1.52 1.51 1.51 1.50 1.47 1.41 1.40 1.33 1.22 1.11 1.03 0.99 0.98 0.96 0.97 0.95 0.92 0.86 0.81 0.76 0.74 0.73 0.71 0.57 0.49 0.55 0.54 0.52 0.54 0.49 0.48 0.42 0.43 0.43 0.40 0.44 0.52 0.49 0.43 0.41 0.38 0.38 0.38 0.36 0.34 0.30 0.32 0.35 0.35 0.34 0.33 0.29 0.31 0.37 0.45 0.50 0.54 0.56
Wind_Speed
2 3 2 2 3 5 5 5 4 4 3 3 3 3 3 4 4 4 5 5 6 6 6 6 5 5 5 5 4 4 4 4 4 4 4 4 4 4 5 4 4 4 4 4 4 4 4 5 6 6 6 7 7 8 8 9 9 10 10 10 11 11 12
1 2 2 2 3 5 5 5 4 4 4 3 3 3 4 4 4 4 5 6 6 6 6 6 5 5 5 5 4 4 5 4 4 4 4 4 4 4 4 4 4 4 4 4 4 4 5 5 5 6 6 7 7 8 9 9 10 11 11 11 12 12 13
0 1 1 2 4 5 5 5 5 4 4 4 4 4 4 4 4 4 5 6 6 6 6 6 5 5 5 5 4 4 5 5 5 5 4 4 4 4 4 4 4 4 4 4 4 4 4 5 5 6 7 8 8 9 10 10 11 11 12 13 13 13 14
1 1 2 3 5 5 5 5 5 5 5 5 5 4 4 4 4 4 4 5 6 6 6 5 5 5 5 5 4 4 5 5 5 4 4 4 4 3 3 3 3 3 3 3 4 4 4 5 6 6 8 8 9 10 11 11 12 13 13 14 15 15 16
2 2 2 3 5 5 5 5 5 5 5 5 5 4 4 4 4 4 4 5 5 5 5 5 4 4 4 4 4 4 4 4 4 4 3 3 3 3 3 3 2 2 3 3 3 4 5 6 7 8 9 9 10 11 12 13 13 14 15 16 16 16 17
3 3 3 3 5 5 5 5 5 5 5 5 5 4 4 4 4 4 4 4 5 5 5 4 4 4 4 4 3 3 3 3 3 3 3 2 2 2 2 2 2 2 3 3 4 5 6 7 8 9 10 11 11 12 13 14 15 16 17 17 17 17 18
3 3 3 3 4 5 5 5 5 5 5 5 5 4 4 4 4 4 4 4 5 5 4 4 4 4 4 4 3 3 3 3 2 2 2 2 2 2 2 2 3 3 4 4 5 6 7 8 9 10 10 11 12 13 14 15 16 17 17 18 18 18 19
3 3 3 3 4 5 5 5 5 5 5 5 5 4 4 4 4 4 4 4 4 4 4 4 4 4 4 4 3 3 3 2 2 2 2 2 2 2 3 3 4 4 5 6 6 7 8 9 10 11 11 12 13 15 16 16 17 17 18 18 19 19 19
3 3 3 3 4 4 4 5 5 5 5 5 4 5 5 4 4 4 4 4 4 4 4 4 4 4 3 3 3 3 3 2 2 2 2 2 3 3 4 4 5 5 6 7 8 9 9 10 11 12 13 14 15 15 16 17 17 18 18 18 19 19 20
2 2 3 3 3 3 4 4 4 4 4 4 4 5 5 4 4 4 4 4 4 4 4 4 3 3 3 3 3 2 2 2 2 2 2 3 4 4 4 5 6 6 7 8 9 10 10 11 12 13 14 14 15 16 17 17 18 18 19 19 20 20 20
2 2 3 3 3 3 4 4 4 4 3 3 4 5 5 4 4 4 4 4 4 4 4 3 3 3 3 3 2 2 2 2 2 2 3 3 4 5 5 6 7 8 8 9 10 11 12 12 13 14 15 15 16 17 18 19 19 20 20 20 20 21 21
2 2 2 2 3 3 3 3 3 3 3 3 3 4 4 4 4 4 4 4 4 4 4 3 3 3 3 2 2 2 1 1 2 3 4 4 5 6 7 8 9 9 10 11 12 13 14 14 15 15 16 17 18 19 20 20 20 21 21 21 21 21 21
1 1 1 2 2 3 3 3 3 3 3 3 3 4 4 4 4 4 4 4 4 4 4 3 3 3 3 3 2 2 2 2 3 4 5 6 7 8 9 9 10 11 12 13 14 14 15 15 16 17 18 18 19 20 20 20 20 20 20 21 21 21 21
1 1 1 2 2 3 3 3 3 3 3 3 3 4 4 4 4 4 4 4 4 4 4 4 4 3 3 3 2 2 3 4 5 6 7 7 8 9 10 10 11 12 13 14 14 14 15 16 16 17 18 19 19 20 20 19 19 19 19 20 20 20 21
2 2 2 2 3 3 3 3 3 3 3 3 4 4 4 4 4 4 5 5 4 4 4 4 4 4 3 3 3 3 4 5 6 7 8 8 9 10 10 11 11 12 13 13 14 14 15 16 16 17 18 19 19 19 19 18 18 18 19 19 20 20 20
4 4 4 3 3 4 4 3 3 3 3 4 4 4 4 4 4 5 5 4 4 4 4 4 4 4 4 4 4 5 5 6 7 8 8 9 10 10 10 11 12 12 13 13 13 14 15 16 16 17 18 18 18 19 18 18 18 18 19 19 20 20 20
5 5 5 4 4 4 4 4 4 4 4 4 4 4 5 5 5 5 5 4 4 4 5 5 4 4 4 4 5 6 6 7 8 8 9 10 10 10 11 11 12 12 13 13 14 14 15 16 17 17 17 18 19 19 19 19 18 19 19 20 20 21 21
7 6 6 5 5 5 5 5 4 4 5 5 5 5 5 5 5 5 5 5 5 5 5 5 5 5 5 5 6 7 7 8 9 9 10 10 10 11 11 12 12 13 14 14 15 16 17 17 17 18 18 19 19 19 19 19 19 19 20 21 22 22 23
8 7 6 6 5 6 6 5 5 5 5 5 5 5 5 6 6 6 5 6 6 6 5 5 5 5 6 6 7 8 8 9 9 10 10 10 11 11 12 12 13 14 15 16 17 17 17 17 18 18 19 19 20 20 20 21 20 20 21 22 23 23 23
8 8 7 7 7 7 7 6 6 6 6 6 6 6 6 6 6 6 6 6 6 6 6 5 6 6 7 7 8 8 9 9 10 11 11 11 12 13 13 14 15 16 17 18 18 18 18 18 19 19 20 20 21 21 22 22 21 21 22 23 23 24 24
8 8 7 7 7 7 7 7 6 6 6 6 6 6 6 6 6 6 6 6 6 6 6 6 7 7 8 8 9 9 10 10 11 11 11 12 13 13 14 15 17 17 18 18 18 18 18 19 19 20 21 21 21 22 22 22 21 21 22 23 23 23 23
8 8 8 7 8 7 7 7 7 7 6 6 6 6 6 6 6 6 6 6 6 6 6 7 8 8 9 9 10 10 11 11 11 12 13 14 14 14 15 17 18 18 18 18 18 18 19 19 20 21 21 21 21 21 21 21 20 21 22 22 22 23 23
8 8 8 8 8 7 7 7 7 7 7 6 6 6 6 6 6 6 6 6 6 7 7 8 9 9 10 10 10 11 11 12 12 13 14 14 15 16 17 17 18 18 18 18 18 19 19 20 20 20 20 21 20 20 20 20 19 20 21 21 22 23 23
7 7 7 7 7 7 7 7 7 7 7 7 6 6 6 6 6 6 6 6 6 7 8 9 9 10 10 10 11 11 12 12 13 13 14 15 15 16 17 17 17 17 17 18 18 18 19 19 19 19 19 20 20 20 20 20 20 20 21 22 22 23 24
6 6 6 6 6 6 7 7 7 7 7 7 6 6 6 6 6 6 6 6 7 7 8 9 9 9 10 10 10 11 12 13 13 14 15 15 16 16 16 16 17 17 17 17 18 18 18 18 18 19 19 19 20 20 20 20 20 21 21 22 23 24 25
6 5 5 5 5 6 6 7 7 7 7 7 6 6 6 6 6 6 6 7 7 8 8 8 8 9 9 10 10 11 12 13 14 14 15 15 15 15 16 16 16 17 17 17 17 17 18 18 19 19 19 19 20 20 20 20 21 21 21 22 24 25 26
5 5 5 5 5 5 6 6 7 7 7 6 6 6 6 5 5 6 6 6 7 7 7 7 8 8 9 9 10 11 12 13 14 14 14 14 14 15 16 16 16 17 17 17 17 17 18 18 19 19 19 19 19 19 19 20 21 21 22 23 25 26 27
4 4 4 5 5 5 5 6 6 7 6 6 6 5 5 5 5 5 6 6 6 6 6 7 8 8 9 9 10 10 11 12 12 13 13 14 14 15 16 16 16 16 16 16 17 17 18 18 19 19 18 18 18 19 20 20 21 22 23 25 26 27 27
4 4 5 6 6 5 6 6 6 6 6 5 5 5 5 5 5 5 5 5 5 5 6 7 7 8 8 8 9 10 10 11 11 12 13 14 15 15 16 16 16 16 16 16 17 17 18 18 18 18 18 18 19 19 20 21 23 24 25 25 26 27 27
4 5 6 6 5 6 6 6 6 6 5 5 5 5 5 5 5 5 4 4 5 6 6 6 7 7 7 8 8 9 10 10 11 12 13 14 15 15 15 15 15 15 15 16 17 17 17 17 17 17 18 18 19 20 21 22 24 25 25 25 26 27 27
5 6 6 6 5 5 6 6 6 6 5 5 5 5 4 5 5 4 4 4 5 5 5 6 6 6 7 8 8 9 10 11 12 13 14 14 15 15 15 15 14 15 15 16 16 16 16 17 17 17 18 19 20 21 22 23 24 25 25 25 26 27 27
6 7 7 6 6 5 6 6 6 6 6 5 5 5 4 4 5 4 4 5 5 5 5 5 6 6 7 8 9 10 11 12 12 13 14 14 15 14 14 14 14 14 15 15 15 15 16 17 17 18 18 19 20 21 22 24 24 24 25 25 26 26 27
7 7 7 6 6 6 6 6 6 6 6 5 5 5 5 4 4 5 5 4 4 5 5 5 6 7 8 8 9 10 11 12 13 13 14 14 14 14 13 14 14 14 15 15 15 15 16 17 17 18 19 20 21 22 23 24 24 24 24 25 26 26 27
7 7 7 6 6 6 6 6 6 6 5 5 5 5 5 4 4 4 4 4 4 5 5 6 6 7 8 9 10 11 12 12 13 13 14 14 14 14 13 13 14 14 14 15 15 16 16 17 18 18 19 21 22 22 23 24 24 24 25 26 26 26 26
7 7 7 6 6 6 6 6 6 6 5 5 5 5 4 4 4 4 4 4 4 5 5 6 7 8 9 10 11 11 12 13 13 13 13 13 13 13 13 13 14 14 14 14 15 16 17 17 18 19 20 21 22 23 23 24 24 25 25 26 25 25 24
7 7 6 6 5 6 6 6 6 6 5 5 5 5 5 4 4 4 4 4 5 5 6 7 7 8 9 10 11 11 12 12 13 13 13 13 13 13 13 13 13 14 14 14 15 16 16 17 18 19 21 22 22 23 24 24 25 25 26 25 25 24 23
7 7 7 6 6 6 6 6 6 6 5 5 5 5 5 4 4 4 4 5 5 6 6 7 8 9 10 10 11 11 12 12 12 12 12 12 13 13 13 13 13 13 14 14 15 16 16 17 18 20 21 22 22 23 23 24 25 25 25 24 24 23 22
7 7 6 6 6 6 6 6 6 6 5 5 5 5 4 4 4 4 4 5 5 6 6 7 8 9 10 10 11 11 11 12 12 12 12 13 13 13 13 13 13 13 13 14 15 16 16 17 19 20 21 22 22 23 23 24 25 25 24 23 22 22 22
Wind_Direction
231 230 223 195 173 168 165 164 165 172 179 173 158 146 137 138 148 158 163 164 161 160 163 164 163 166 169 172 177 181 182 183 183 182 181 180 178 178 186 200 214 226 239 244 247 251 252 253 258 262 266 270 273 275 275 277 281 283 285 288 288 288 288
229 223 205 168 156 155 153 152 154 161 169 168 160 152 144 143 150 156 159 160 158 156 159 162 164 168 173 177 180 181 182 180 178 182 185 181 179 185 199 216 227 238 249 252 253 255 254 259 266 271 275 277 277 279 280 281 283 284 284 286 286 286 286
208 197 180 153 148 149 149 148 151 158 165 164 160 156 150 147 151 155 157 158 158 157 160 165 167 170 176 178 177 178 180 179 175 178 182 183 189 200 214 229 239 248 254 254 255 259 262 267 272 277 280 282 282 282 283 283 283 284 284 285 286 285 285
55 110 127 134 141 146 147 149 154 160 166 164 158 153 149 149 152 155 159 161 161 162 166 169 171 174 178 180 182 182 180 178 176 178 183 188 201 218 230 237 243 248 251 252 256 266 274 276 278 281 283 284 285 284 285 286 286 286 286 286 287 286 285
63 83 103 125 138 145 148 151 157 164 166 163 159 155 149 151 155 157 162 163 164 166 169 173 175 178 183 186 189 185 177 179 183 186 195 204 220 235 236 238 244 248 254 260 265 273 278 282 287 289 289 289 288 287 288 288 287 287 288 288 287 286 286
70 79 98 125 138 146 150 153 157 161 163 161 162 163 157 157 159 158 161 163 165 168 171 175 177 178 182 182 181 177 177 186 195 201 215 228 235 237 239 249 259 262 267 274 278 281 285 289 292 293 293 292 291 289 290 289 288 288 289 289 288 286 286
76 82 98 122 137 147 151 153 154 157 159 158 161 167 167 164 162 161 165 167 168 170 172 175 176 175 174 175 176 179 184 194 206 217 229 233 237 249 263 270 273 276 278 282 286 289 291 293 293 293 294 294 293 292 292 291 291 290 290 290 289 288 287
83 93 101 120 139 148 151 153 154 155 157 159 163 171 175 173 170 169 172 174 174 175 175 175 175 174 174 178 183 186 192 203 217 229 238 247 261 272 277 281 283 285 285 286 289 291 293 295 295 296 297 298 298 298 297 295 294 293 292 292 291 290 289
85 101 108 123 137 144 148 151 154 155 157 163 171 178 181 181 182 182 182 185 183 179 176 174 174 176 180 186 190 192 200 214 230 244 252 261 270 276 282 286 287 286 286 288 290 292 294 297 299 300 301 302 302 302 301 299 298 296 295 294 293 292 291
81 97 110 123 127 134 143 147 152 157 162 174 184 188 189 190 193 193 191 192 189 182 179 178 178 183 187 189 190 196 208 224 243 253 257 263 271 277 283 287 287 288 290 291 294 295 297 299 301 302 303 304 304 305 304 302 300 298 297 296 295 294 294
76 87 106 120 122 131 143 147 155 161 167 181 191 194 196 196 197 199 197 194 191 185 183 183 186 188 188 187 188 194 212 232 251 261 267 274 280 283 286 289 291 293 294 295 297 299 300 300 301 302 303 304 305 306 306 303 301 300 298 297 296 296 295
80 86 111 128 133 140 148 156 163 164 168 182 190 193 196 196 197 199 196 193 189 186 186 187 188 186 181 179 184 192 213 248 269 280 285 286 287 286 288 291 293 294 296 297 298 299 300 300 301 301 301 303 305 306 305 303 301 300 299 298 298 296 295
107 112 134 143 153 158 165 173 173 171 179 187 188 190 193 192 193 194 192 190 188 188 190 189 184 180 178 180 189 209 248 277 285 289 289 289 290 290 291 293 295 296 298 299 299 299 300 300 299 299 300 302 305 306 304 303 301 300 300 300 299 298 297
172 180 171 163 172 179 184 188 184 182 188 188 187 189 191 192 193 194 193 192 194 194 194 190 185 183 187 197 219 250 274 286 290 292 293 295 297 297 297 298 299 300 302 302 302 301 301 301 301 301 302 305 306 307 306 304 302 302 302 302 302 301 300
201 200 193 185 188 191 194 197 198 195 191 188 187 187 187 189 193 194 194 195 197 197 194 191 191 197 208 226 253 273 285 293 296 298 300 302 304 303 302 301 302 304 304 305 305 303 304 305 304 304 305 307 308 309 309 307 305 305 305 305 304 303 302
212 212 211 206 203 204 203 206 208 204 198 194 192 191 191 193 194 193 193 196 198 198 198 199 204 218 234 254 273 285 293 298 302 304 304 305 305 305 304 304 306 307 307 309 309 308 309 309 307 307 308 309 310 310 310 308 307 307 308 307 305 304 302
219 220 222 221 220 217 216 217 218 214 209 204 200 201 204 202 197 195 197 201 204 204 206 211 221 236 253 270 282 290 297 301 305 307 307 306 305 305 305 306 308 309 310 311 310 310 312 311 309 310 311 311 311 311 309 307 306 308 309 307 305 304 303
225 226 227 230 232 229 227 227 226 222 215 209 208 212 213 207 200 200 202 206 209 210 214 223 235 249 262 276 287 296 300 303 305 306 307 307 307 308 309 309 309 310 310 311 311 311 312 311 310 311 312 311 311 310 309 307 306 307 308 307 306 306 305
228 230 232 236 237 236 236 235 232 228 218 213 216 218 214 207 203 205 208 210 212 216 223 235 247 260 271 283 293 300 302 303 305 306 307 308 308 309 309 309 309 310 310 311 311 311 311 311 310 311 311 311 310 309 309 308 307 307 308 307 306 305 305
231 233 236 240 240 239 240 239 236 231 221 217 219 218 214 211 210 211 213 214 218 226 236 247 260 270 279 288 295 300 303 304 305 307 308 309 308 308 308 308 309 309 310 311 310 310 311 311 311 311 311 311 311 310 311 310 308 307 308 307 306 305 304
232 233 236 240 241 241 240 236 234 230 223 219 219 218 217 217 217 218 218 219 226 237 248 259 268 276 282 288 295 300 303 305 305 307 308 308 309 309 309 309 309 309 310 310 310 310 311 312 311 312 312 312 312 311 312 311 309 309 309 308 307 306 305
229 229 233 238 239 239 236 231 228 225 220 217 218 219 220 221 221 221 221 226 236 246 257 265 272 279 283 288 294 300 303 304 305 306 307 309 310 309 309 310 309 310 310 311 311 312 312 312 312 313 312 313 314 314 313 313 311 310 311 311 310 309 308
227 229 233 235 236 235 230 226 224 219 213 212 216 219 221 222 223 224 227 235 246 254 263 270 277 282 285 289 295 300 303 304 306 307 309 311 311 310 310 311 311 312 313 313 313 313 313 313 313 314 315 316 317 316 315 314 313 313 313 314 313 312 311
229 233 235 235 234 232 227 222 219 215 209 208 213 218 222 223 225 231 237 246 255 263 271 276 281 285 287 291 296 300 303 305 308 310 311 312 312 312 313 314 314 315 316 315 315 314 314 315 316 317 318 318 318 318 317 316 315 315 316 316 314 313 312
228 233 235 235 232 227 223 219 214 209 206 208 212 218 223 225 231 240 248 256 264 271 278 283 287 290 292 295 298 300 303 307 309 311 312 312 314 315 317 317 318 318 318 318 317 317 318 319 319 319 319 319 318 319 318 317 317 317 318 317 316 314 314
228 230 229 229 226 220 216 212 207 205 206 210 215 218 223 229 239 249 256 263 268 275 283 289 293 296 297 298 300 301 304 308 309 311 313 314 316 318 320 321 321 321 320 320 320 320 321 321 321 320 320 320 320 320 319 319 318 319 319 318 317 317 316
225 224 218 215 214 211 209 208 206 205 208 214 217 220 226 234 244 253 259 265 270 278 287 293 297 299 300 300 302 304 307 309 311 312 315 318 320 322 323 323 323 322 322 321 322 322 322 322 321 321 321 321 321 321 321 321 320 320 320 319 319 319 319
209 204 200 202 206 205 204 205 206 207 211 216 219 224 232 240 250 258 261 266 274 283 291 296 299 302 304 305 307 309 311 313 314 317 319 322 324 324 325 324 323 322 322 323 323 323 323 322 322 322 323 323 322 322 322 322 322 321 321 322 321 321 320
194 188 189 195 200 201 200 202 205 209 213 217 222 229 238 245 254 261 263 269 280 289 294 297 301 305 308 311 314 315 316 318 320 322 324 325 326 326 325 324 323 323 324 324 324 324 323 323 324 324 324 324 324 324 324 324 324 323 323 323 323 322 322
189 184 184 187 191 195 200 203 206 210 214 218 226 235 242 250 257 259 260 271 285 292 297 302 305 309 313 317 319 321 322 323 324 325 326 327 327 326 325 324 324 324 325 326 325 325 325 325 326 326 326 325 325 325 325 325 325 324 324 324 324 324 324
188 185 184 184 188 195 202 206 208 211 214 218 226 236 244 254 257 254 257 273 286 294 302 306 308 313 318 321 323 324 324 324 325 326 327 327 327 327 326 326 326 327 327 327 327 327 328 328 328 328 327 326 326 326 326 326 326 326 326 327 327 326 326
190 192 193 193 194 198 203 207 210 212 214 219 229 238 246 253 255 253 260 274 286 296 303 307 312 318 323 325 325 324 324 325 326 327 328 329 329 329 328 328 329 329 329 328 329 329 330 330 329 328 328 328 328 327 327 328 328 327 327 328 329 328 328
193 195 198 199 198 200 204 208 211 213 215 220 231 241 246 250 251 253 262 273 283 292 300 309 317 323 325 326 325 325 325 327 328 329 331 332 332 331 331 331 331 330 330 331 332 332 331 330 330 330 330 330 330 329 328 329 330 329 328 329 330 330 330
195 197 200 201 202 205 209 211 213 215 216 222 231 238 242 244 246 251 259 269 276 287 299 311 319 324 326 326 326 326 327 328 328 329 331 333 333 331 332 333 333 332 333 334 334 333 332 332 332 332 332 332 331 330 330 330 330 330 330 330 331 331 332
196 200 202 205 208 212 213 213 215 217 220 226 231 233 234 237 243 249 258 266 275 289 302 312 319 324 326 326 327 328 328 329 330 330 331 334 335 333 333 333 334 333 333 334 335 335 334 333 333 333 333 333 332 332 331 331 331 331 331 331 331 332 333
200 203 204 207 213 216 216 218 218 219 221 225 226 224 226 232 241 250 259 269 282 296 306 313 319 323 326 328 329 329 328 329 331 332 333 336 337 336 334 334 335 336 335 334 336 337 336 334 333 334 334 333 333 333 333 332 331 331 331 331 332 332 333
202 203 204 210 216 217 217 218 216 214 214 215 216 218 222 229 239 251 264 276 288 300 309 314 319 322 325 327 327 327 328 331 333 335 337 338 338 337 335 333 334 334 335 335 336 336 335 334 334 335 335 334 334 335 334 333 333 333 333 333 333 334 335
202 204 208 213 215 210 207 207 206 205 205 206 208 212 217 227 243 258 271 282 292 303 310 314 318 321 324 326 327 327 330 333 335 338 339 339 338 337 335 333 332 332 333 334 335 335 335 335 336 336 336 336 336 336 336 336 335 335 334 334 334 335 336